Lid_Strength_Index
12 11 11 12 12 11 13 12 15 14 13 11 10 9 10 9 9 8 8 7 8 8 7 7 7 7 7 7 7 8 8 8 9 8 7 7 7 6 6 6 6 6 5 4
14 11 11 13 11 11 11 11 12 12 12 9 9 11 11 9 8 8 9 7 6 6 7 7 7 7 7 7 7 8 8 8 8 7 7 7 7 7 6 7 7 6 5 5
16 13 13 15 13 12 11 10 11 13 10 9 11 10 10 10 8 8 9 8 7 7 7 7 7 6 8 8 7 7 8 7 6 7 8 7 7 7 6 7 7 7 6 5
16 14 20 13 9 9 11 10 9 9 10 8 10 10 10 10 10 9 8 7 7 6 7 7 7 7 7 8 8 7 7 7 6 7 8 8 8 8 8 7 7 7 6 6
17 17 14 12 11 11 12 12 8 9 9 9 9 9 9 8 9 7 6 6 6 7 7 7 7 7 7 7 7 7 7 7 6 7 7 8 8 8 8 8 8 7 6 6
15 18 20 13 9 7 8 14 7 9 9 9 9 11 10 7 6 6 6 6 6 6 7 7 6 7 7 7 7 7 7 6 6 6 7 8 8 8 8 9 7 6 6 6
16 16 14 9 8 7 15 14 7 7 8 9 9 9 7 6 7 6 6 6 6 7 7 7 7 7 8 7 7 5 5 6 6 6 7 7 8 9 9 9 8 7 7 7
15 18 18 8 8 12 9 8 7 8 8 8 8 7 7 6 7 6 6 6 6 7 7 6 6 7 7 8 5 5 5 6 6 7 6 6 8 8 9 10 9 8 8 7
13 13 9 7 9 7 7 9 7 8 7 7 6 7 6 7 7 6 6 6 6 7 6 6 6 6 6 5 5 5 6 6 6 7 7 7 8 8 9 10 10 9 9 8
11 10 8 7 6 7 7 8 7 6 6 7 7 7 7 7 7 7 6 6 6 6 6 6 4 5 5 5 5 6 6 6 6 7 7 8 8 8 9 9 10 10 10 9
11 9 7 6 6 7 6 7 7 6 6 7 7 7 7 7 6 6 6 6 5 4 5 4 4 3 3 3 5 5 5 5 6 6 7 7 7 7 8 8 9 9 10 10
13 8 8 7 6 5 6 6 5 5 5 4 5 5 5 6 5 5 4 4 4 4 5 4 4 4 3 3 3 4 5 6 6 6 6 6 7 7 9 9 9 10 10 9
8 5 5 5 5 5 5 5 4 4 4 5 4 4 4 5 4 4 4 5 6 7 7 7 7 7 9 9 7 5 5 5 6 6 6 6 7 7 7 7 10 10 11 11
5 5 7 6 7 5 4 4 4 4 3 3 4 3 4 4 6 7 8 8 8 8 8 8 10 10 9 10 10 10 8 7 5 4 4 5 6 6 7 7 7 7 10 10
5 6 7 6 5 4 4 4 6 6 6 6 6 6 6 6 7 9 8 9 9 9 8 11 11 11 10 10 12 12 11 10 8 7 6 6 4 5 5 6 7 7 7 10
5 5 5 7 7 6 7 7 8 7 6 7 7 8 6 6 8 9 10 10 12 12 11 10 11 11 11 12 12 12 12 11 10 9 8 8 7 7 7 6 6 6 7 6
7 8 7 8 8 8 8 7 8 8 8 8 9 9 9 10 10 12 12 13 13 13 13 12 12 12 12 13 13 13 12 11 11 11 11 10 10 10 9 8 8 6 5 6
7 8 8 8 9 9 8 8 9 10 11 10 10 11 11 11 13 13 13 13 13 13 14 14 12 13 13 13 13 13 12 12 13 13 12 12 11 11 11 10 10 9 8 8
8 8 9 9 9 9 8 8 10 10 11 10 11 12 13 12 12 12 13 13 15 16 15 14 11 13 14 13 12 13 12 13 14 14 14 13 13 12 11 11 11 11 10 9
8 9 10 10 10 10 10 9 8 10 12 12 13 14 14 13 13 13 14 15 15 15 14 14 14 15 14 14 12 14 13 14 14 14 14 14 14 14 13 12 11 11 10 10
10 10 11 13 12 12 12 12 12 13 14 14 15 15 15 15 13 14 16 17 15 15 14 13 15 15 15 14 13 13 13 13 13 13 12 12 12 12 12 12 12 11 9 9
11 13 12 12 13 13 13 13 14 14 15 15 14 14 15 15 15 14 14 16 15 13 14 15 15 13 13 12 13 12 11 11 11 11 10 10 10 10 10 10 10 10 10 10
12 13 14 13 14 14 14 15 15 15 15 15 15 15 16 15 16 16 16 15 14 14 13 13 12 12 11 11 11 10 10 10 10 10 10 9 9 9 10 10 10 10 10 9
15 15 14 14 14 15 17 16 16 15 15 15 15 15 16 16 15 14 14 12 12 11 11 11 10 10 10 10 10 10 10 10 10 9 9 8 8 8 9 9 9 9 9 9
15 14 15 16 17 17 17 16 16 16 15 15 15 14 14 14 15 13 13 12 10 10 10 10 10 10 10 10 10 10 10 9 9 9 8 7 7 7 7 7 7 7 8 8
15 16 17 17 17 17 16 16 17 16 16 15 15 14 13 12 12 12 11 10 10 9 9 10 9 9 9 9 9 9 9 9 9 8 7 6 6 6 7 7 7 6 6 6
16 15 17 16 16 16 16 15 16 15 14 15 15 13 12 11 11 10 9 10 10 9 9 9 9 8 8 8 9 8 8 8 8 7 6 6 6 6 7 7 7 7 7 6